Вернуться в каталог

SL-19 DEB

АктивенUNKNOWN
NORAD 23482·DEBRIS·🇷🇺 Russia

Запущен Dec 26, 1994 с Baikonur Cosmodrome

Loading…

Ближайшие Пролёты (ближайшие 24 часа)

TLE

СвежийSource: Space-Track

Эпоха: Sep 14, 2026, 13:14 UTC

1 23482U 94085E   26257.55154639  .00000391  00000-0  10381-1 0  9992
2 23482  64.6845  87.4723 0380433 166.9167 227.3500 11.30982236306588

Отслеживайте SL-19 DEB в реальном времени с AllMySat

Download on the App Store